Location: Wanzleben
(52.0609°N, 11.4408°E)
Time: 11:46:25
(UTC+00:00)

Cosmos 2263 Rocket - Pass Details

Date: 22 January 2021
Orbit: 825 x 847 km, 71.0° (Epoch: 24 February)

Event Time Altitude Azimuth Distance (km) Brightness Sun altitude
Rises 16:41:35 0° 213° (SSW) 3,398 6.3 -8.7°
Reaches altitude 10° 16:44:02 10° 215° (SW) 2,465 5.6 -9.1°
Maximum altitude 16:49:42 78° 302° (WNW) 869 2.4 -9.9°
Drops below altitude 10° 16:55:23 10° 29° (NNE) 2,468 4.2 -10.7°
Enters shadow 16:56:34 - 30° (NNE) 2,914 4.6 -10.9°
